HAZ2609 ZSHC-ZPPP

Flight info

Callsign HAZ2609
Flight time N/A
Altitude 38100
Route NIVIK8D NIVIK W135 DOGVI W545 VEMEX W73 MADUK W51 LEGIV W164 ADGOL W50 XSH W80 IDGAG A581 QNX W136 XISLI
Aircraft A339/H-SADE1E2E3GHIJ3J5M1P2RWXY/LB2D1

Departure

Time 2026-05-04 04:59
Airport Hangzhou Xiaoshan International Airport (ZSHC)

Arrival

Time N/A
Airport Kunming Changshui International Airport (ZPPP)
Time Latitude Longitude Altitude Speed Heading
2026-05-04 04:06 30.24183 120.42762 37 ft 0 kts 191°
2026-05-04 04:50 30.24191 120.42764 37 ft 2 kts 192°
2026-05-04 04:50 30.24205 120.42767 37 ft 1 kts 191°
2026-05-04 04:50 30.24215 120.42770 37 ft 2 kts 185°
2026-05-04 04:50 30.24230 120.42768 37 ft 2 kts 161°
2026-05-04 04:51 30.24244 120.42761 37 ft 2 kts 142°
2026-05-04 04:51 30.24254 120.42749 37 ft 2 kts 122°
2026-05-04 04:51 30.24261 120.42733 37 ft 2 kts 103°
2026-05-04 04:51 30.24262 120.42715 37 ft 2 kts 83°
2026-05-04 04:52 30.24259 120.42701 37 ft 0 kts 66°
2026-05-04 04:52 30.24258 120.42696 37 ft 0 kts 65°
2026-05-04 04:53 30.24259 120.42701 37 ft 1 kts 65°
2026-05-04 04:53 30.24268 120.42722 37 ft 4 kts 64°
2026-05-04 04:53 30.24283 120.42759 37 ft 6 kts 64°
2026-05-04 04:54 30.24306 120.42811 37 ft 8 kts 59°
2026-05-04 04:54 30.24339 120.42870 37 ft 9 kts 63°
2026-05-04 04:54 30.24372 120.42938 37 ft 10 kts 61°
2026-05-04 04:54 30.24410 120.43016 37 ft 11 kts 61°
2026-05-04 04:55 30.24451 120.43103 37 ft 12 kts 61°
2026-05-04 04:55 30.24491 120.43198 37 ft 13 kts 64°
2026-05-04 04:55 30.24534 120.43301 37 ft 14 kts 64°
2026-05-04 04:55 30.24578 120.43407 37 ft 15 kts 64°
2026-05-04 04:56 30.24650 120.43479 37 ft 14 kts 357°
2026-05-04 04:56 30.24743 120.43445 37 ft 9 kts 352°
2026-05-04 04:56 30.24792 120.43481 37 ft 9 kts 52°
2026-05-04 04:56 30.24829 120.43552 37 ft 10 kts 63°
2026-05-04 04:57 30.24866 120.43634 37 ft 12 kts 60°
2026-05-04 04:57 30.24911 120.43722 37 ft 13 kts 60°
2026-05-04 04:57 30.24955 120.43819 37 ft 14 kts 62°
2026-05-04 04:57 30.25001 120.43922 37 ft 14 kts 62°
2026-05-04 04:58 30.25061 120.44014 37 ft 14 kts 19°
2026-05-04 04:58 30.25155 120.43980 37 ft 15 kts 317°
2026-05-04 04:58 30.25163 120.43870 37 ft 14 kts 251°
2026-05-04 04:58 30.25118 120.43759 37 ft 18 kts 242°
2026-05-04 04:59 30.24948 120.43410 37 ft 81 kts 246°
2026-05-04 04:59 30.24608 120.42635 38 ft 134 kts 246°
2026-05-04 04:59 30.24162 120.41555 306 ft 151 kts 242°
2026-05-04 04:59 30.23690 120.40492 765 ft 153 kts 240°
2026-05-04 05:00 30.23163 120.39349 1085 ft 169 kts 242°
2026-05-04 05:00 30.22594 120.38090 1421 ft 185 kts 241°
2026-05-04 05:00 30.21376 120.35370 2485 ft 194 kts 242°
2026-05-04 05:01 30.20758 120.33986 3007 ft 199 kts 242°
2026-05-04 05:01 30.20102 120.32520 3491 ft 207 kts 242°
2026-05-04 05:01 30.19436 120.31035 4036 ft 212 kts 243°
2026-05-04 05:01 30.18739 120.29472 4421 ft 227 kts 243°
2026-05-04 05:02 30.17996 120.27801 4839 ft 241 kts 244°
2026-05-04 05:02 30.17203 120.26019 5197 ft 257 kts 244°
2026-05-04 05:02 30.16376 120.24167 5699 ft 267 kts 244°
2026-05-04 05:02 30.15567 120.22192 6194 ft 275 kts 255°
2026-05-04 05:03 30.15486 120.20003 6858 ft 274 kts 285°
2026-05-04 05:03 30.16297 120.18072 7627 ft 269 kts 311°
2026-05-04 05:04 30.21034 120.14748 9687 ft 274 kts 332°
2026-05-04 05:04 30.22715 120.13701 10394 ft 275 kts 331°
2026-05-04 05:04 30.24441 120.12620 10798 ft 288 kts 331°
2026-05-04 05:06 30.38584 120.03691 14275 ft 351 kts 330°
2026-05-04 05:06 30.40729 120.02332 14936 ft 355 kts 329°
2026-05-04 05:06 30.42901 120.00957 15590 ft 358 kts 329°
2026-05-04 05:07 30.45097 119.99567 16213 ft 362 kts 329°
2026-05-04 05:07 30.47322 119.98161 16801 ft 366 kts 329°
2026-05-04 05:07 30.49567 119.96741 17405 ft 370 kts 329°
2026-05-04 05:09 30.69483 119.89006 21755 ft 431 kts
2026-05-04 05:09 30.72381 119.89901 22173 ft 435 kts
2026-05-04 05:10 30.75349 119.90222 22526 ft 422 kts 346°
2026-05-04 05:10 30.78111 119.89346 22981 ft 406 kts 327°
2026-05-04 05:10 30.80450 119.87607 23438 ft 397 kts 315°
2026-05-04 05:10 30.82649 119.85661 23889 ft 401 kts 315°
2026-05-04 05:11 30.84866 119.83724 24338 ft 404 kts 315°
2026-05-04 05:11 30.87133 119.81757 24735 ft 408 kts 315°
2026-05-04 05:11 30.89446 119.79753 24899 ft 418 kts 316°
2026-05-04 05:11 30.91809 119.77709 25108 ft 427 kts 315°
2026-05-04 05:12 30.94187 119.75658 25443 ft 431 kts 315°
2026-05-04 05:12 30.96629 119.73557 25848 ft 434 kts 315°
2026-05-04 05:12 30.99056 119.71467 26292 ft 435 kts 315°
2026-05-04 05:12 31.01478 119.69381 26698 ft 437 kts 315°
2026-05-04 05:13 31.03941 119.67255 27066 ft 439 kts 315°
2026-05-04 05:13 31.06392 119.65137 27423 ft 442 kts 315°
2026-05-04 05:13 31.08868 119.62993 27794 ft 444 kts 315°
2026-05-04 05:13 31.11351 119.60845 28148 ft 446 kts 315°
2026-05-04 05:14 31.13824 119.58701 28557 ft 446 kts 314°
2026-05-04 05:14 31.16315 119.56544 29064 ft 444 kts 314°
2026-05-04 05:14 31.18798 119.54395 29571 ft 441 kts 314°
2026-05-04 05:14 31.21227 119.52290 30077 ft 439 kts 314°
2026-05-04 05:15 31.23672 119.50173 30527 ft 438 kts 314°
2026-05-04 05:15 31.26134 119.48041 30978 ft 437 kts 313°
2026-05-04 05:15 31.28571 119.45924 31368 ft 436 kts 313°
2026-05-04 05:15 31.30999 119.43813 31763 ft 436 kts 313°
2026-05-04 05:16 31.33395 119.41727 32208 ft 433 kts 313°
2026-05-04 05:16 31.35809 119.39625 32610 ft 432 kts 313°
2026-05-04 05:16 31.38230 119.37515 32975 ft 432 kts 313°
2026-05-04 05:16 31.40628 119.35422 33308 ft 431 kts 313°
2026-05-04 05:17 31.43033 119.33319 33679 ft 430 kts 313°
2026-05-04 05:17 31.45427 119.31227 34040 ft 429 kts 313°
2026-05-04 05:17 31.47817 119.29132 34154 ft 434 kts 312°
2026-05-04 05:17 31.50252 119.26994 34151 ft 442 kts 313°
2026-05-04 05:18 31.55234 119.22629 34156 ft 456 kts 313°
2026-05-04 05:18 31.60337 119.18132 34156 ft 452 kts 313°
2026-05-04 05:19 31.65263 119.13641 34163 ft 443 kts 310°
2026-05-04 05:19 31.69893 119.08903 34166 ft 441 kts 309°
2026-05-04 05:20 31.74486 119.04164 34164 ft 439 kts 307°
2026-05-04 05:20 31.78504 118.98965 34164 ft 427 kts 298°
2026-05-04 05:21 31.81645 118.93163 34164 ft 416 kts 288°
2026-05-04 05:21 31.83465 118.86802 34205 ft 407 kts 276°
2026-05-04 05:22 31.83882 118.80271 34172 ft 400 kts 264°
2026-05-04 05:22 31.83393 118.73796 34161 ft 400 kts 263°
2026-05-04 05:23 31.82850 118.67318 34162 ft 400 kts 262°
2026-05-04 05:23 31.82282 118.60847 34155 ft 400 kts 262°
2026-05-04 05:24 31.81700 118.54321 34147 ft 400 kts 263°
2026-05-04 05:24 31.81122 118.47878 34148 ft 400 kts 263°
2026-05-04 05:25 31.80530 118.41379 34146 ft 400 kts 262°
2026-05-04 05:25 31.79612 118.34924 34142 ft 399 kts 257°
2026-05-04 05:26 31.78225 118.28637 34142 ft 400 kts 253°
2026-05-04 05:26 31.76366 118.22487 34137 ft 400 kts 249°
2026-05-04 05:28 31.69226 117.97854 34137 ft 400 kts 256°
2026-05-04 05:29 31.67901 117.91490 34135 ft 401 kts 257°
2026-05-04 05:29 31.66591 117.85173 34137 ft 401 kts 257°
2026-05-04 05:31 31.61315 117.59831 34131 ft 402 kts 257°
2026-05-04 05:32 31.60113 117.53412 34131 ft 401 kts 258°
2026-05-04 05:33 31.58403 117.43832 34127 ft 401 kts 258°
2026-05-04 05:33 31.57263 117.37440 34126 ft 402 kts 258°
2026-05-04 05:34 31.56117 117.31056 34129 ft 402 kts 258°
2026-05-04 05:34 31.54982 117.24653 34120 ft 402 kts 258°
2026-05-04 05:35 31.53852 117.18249 34113 ft 402 kts 258°
2026-05-04 05:35 31.52718 117.11850 34111 ft 403 kts 258°
2026-05-04 05:36 31.51577 117.05428 34114 ft 402 kts 258°
2026-05-04 05:36 31.50430 116.99020 34111 ft 403 kts 258°
2026-05-04 05:37 31.49100 116.92696 34111 ft 403 kts 254°
2026-05-04 05:37 31.47167 116.86537 34113 ft 404 kts 249°
2026-05-04 05:38 31.43183 116.77834 34120 ft 408 kts 240°
2026-05-04 05:38 31.39852 116.72442 34126 ft 410 kts 237°
2026-05-04 05:39 31.34674 116.64460 34136 ft 409 kts 237°
2026-05-04 05:40 31.29496 116.56541 34157 ft 409 kts 237°
2026-05-04 05:40 31.26039 116.51266 34171 ft 409 kts 237°
2026-05-04 05:41 31.22601 116.46039 34182 ft 409 kts 237°
2026-05-04 05:41 31.19141 116.40779 34196 ft 409 kts 237°
2026-05-04 05:42 31.15668 116.35508 34199 ft 408 kts 237°
2026-05-04 05:42 31.12213 116.30276 34207 ft 409 kts 237°
2026-05-04 05:43 31.08743 116.25021 34211 ft 408 kts 237°
2026-05-04 05:45 30.94935 116.04199 34225 ft 407 kts 237°
2026-05-04 05:47 30.81084 115.83349 34200 ft 409 kts 237°
2026-05-04 05:47 30.77613 115.78082 34187 ft 409 kts 237°
2026-05-04 05:48 30.74167 115.72858 34179 ft 408 kts 237°
2026-05-04 05:48 30.70729 115.67656 34177 ft 408 kts 237°
2026-05-04 05:49 30.67262 115.62415 34175 ft 408 kts 237°
2026-05-04 05:49 30.63811 115.57210 34175 ft 408 kts 237°
2026-05-04 05:51 30.49968 115.36354 34164 ft 407 kts 239°
2026-05-04 05:52 30.47226 115.30720 34164 ft 402 kts 248°
2026-05-04 05:52 30.45486 115.24622 34166 ft 400 kts 257°
2026-05-04 05:54 30.46401 114.98863 34165 ft 405 kts 274°
2026-05-04 05:55 30.47060 114.92395 34164 ft 405 kts 274°
2026-05-04 05:55 30.47715 114.85952 34159 ft 405 kts 274°
2026-05-04 05:56 30.48373 114.79459 34154 ft 405 kts 274°
2026-05-04 05:56 30.49028 114.73000 34148 ft 406 kts 274°
2026-05-04 05:57 30.49678 114.66541 34144 ft 406 kts 274°
2026-05-04 05:57 30.50331 114.60022 34137 ft 406 kts 274°
2026-05-04 05:58 30.50976 114.53545 34142 ft 406 kts 274°
2026-05-04 05:58 30.51622 114.47055 34139 ft 407 kts 274°
2026-05-04 05:59 30.52261 114.40564 34138 ft 407 kts 274°
2026-05-04 05:59 30.52899 114.34048 34137 ft 408 kts 274°
2026-05-04 06:00 30.53534 114.27518 34048 ft 407 kts 274°
2026-05-04 06:00 30.54168 114.20995 34130 ft 409 kts 274°
2026-05-04 06:01 30.54782 114.14481 34139 ft 408 kts 274°
2026-05-04 06:03 30.56437 113.88383 34102 ft 405 kts 263°
2026-05-04 06:05 30.48845 113.67385 34121 ft 412 kts 242°
2026-05-04 06:05 30.45783 113.61830 34115 ft 412 kts 242°
2026-05-04 06:06 30.42692 113.56249 34110 ft 412 kts 242°
2026-05-04 06:06 30.39586 113.50668 34111 ft 412 kts 242°
2026-05-04 06:07 30.36497 113.45122 34103 ft 412 kts 242°
2026-05-04 06:07 30.33388 113.39554 34092 ft 412 kts 241°
2026-05-04 06:08 30.30279 113.33995 34102 ft 412 kts 241°
2026-05-04 06:08 30.27172 113.28449 34090 ft 413 kts 241°
2026-05-04 06:09 30.24056 113.22890 34083 ft 414 kts 241°
2026-05-04 06:09 30.22476 113.20075 34195 ft 414 kts 241°
2026-05-04 06:11 30.11721 113.00579 34100 ft 413 kts 241°
2026-05-04 06:13 29.99394 112.78305 34092 ft 412 kts 241°
2026-05-04 06:14 29.88599 112.58898 34097 ft 412 kts 242°
2026-05-04 06:15 29.85491 112.53324 34102 ft 412 kts 242°
2026-05-04 06:15 29.82410 112.47810 34097 ft 411 kts 242°
2026-05-04 06:16 29.79332 112.42311 34102 ft 411 kts 242°
2026-05-04 06:16 29.76238 112.36785 34102 ft 411 kts 242°
2026-05-04 06:17 29.73138 112.31268 34103 ft 411 kts 242°
2026-05-04 06:17 29.70028 112.25762 34110 ft 411 kts 241°
2026-05-04 06:18 29.66899 112.20237 34103 ft 411 kts 242°
2026-05-04 06:20 29.54449 111.98302 34110 ft 410 kts 241°
2026-05-04 06:21 29.46636 111.84602 34097 ft 412 kts 242°
2026-05-04 06:22 29.43504 111.79120 34105 ft 412 kts 242°
2026-05-04 06:25 29.26191 111.38552 34124 ft 405 kts 251°
2026-05-04 06:26 29.24096 111.32561 34128 ft 405 kts 251°
2026-05-04 06:26 29.22004 111.26582 34124 ft 404 kts 251°
2026-05-04 06:27 29.16806 111.11755 34143 ft 403 kts 251°
2026-05-04 06:28 29.14723 111.05833 34146 ft 402 kts 251°
2026-05-04 06:28 29.12635 110.99901 34154 ft 402 kts 251°
2026-05-04 06:29 29.10550 110.93991 34156 ft 402 kts 251°
2026-05-04 06:29 29.08466 110.88097 34159 ft 403 kts 251°
2026-05-04 06:30 29.06360 110.82143 34153 ft 402 kts 251°
2026-05-04 06:30 29.04259 110.76223 34154 ft 403 kts 251°
2026-05-04 06:31 29.02169 110.70315 34153 ft 403 kts 251°
2026-05-04 06:31 29.00101 110.64400 34148 ft 404 kts 251°
2026-05-04 06:33 28.91752 110.40619 34159 ft 404 kts 251°
2026-05-04 06:34 28.89663 110.34695 34158 ft 404 kts 251°
2026-05-04 06:34 28.87565 110.28756 34157 ft 405 kts 251°
2026-05-04 06:36 28.79133 110.04987 34171 ft 405 kts 251°
2026-05-04 06:37 28.77009 109.99026 34175 ft 406 kts 251°
2026-05-04 06:37 28.74893 109.93094 34173 ft 405 kts 251°
2026-05-04 06:38 28.72782 109.87189 34165 ft 405 kts 252°
2026-05-04 06:40 28.64294 109.63439 34152 ft 405 kts 252°
2026-05-04 06:40 28.62270 109.57485 34154 ft 404 kts 252°
2026-05-04 06:41 28.60243 109.51551 34161 ft 404 kts 252°
2026-05-04 06:41 28.58145 109.45597 34163 ft 406 kts 251°
2026-05-04 06:42 28.55697 109.39816 34165 ft 407 kts 249°
2026-05-04 06:44 28.45593 109.16798 34169 ft 408 kts 248°
2026-05-04 06:44 28.43049 109.11041 34173 ft 408 kts 248°
2026-05-04 06:45 28.40505 109.05312 34178 ft 408 kts 248°
2026-05-04 06:45 28.37957 108.99577 34185 ft 408 kts 248°
2026-05-04 06:46 28.35395 108.93819 34190 ft 408 kts 248°
2026-05-04 06:46 28.32844 108.88089 34199 ft 408 kts 248°
2026-05-04 06:48 28.22602 108.65166 34215 ft 408 kts 248°
2026-05-04 06:50 28.12331 108.42315 34200 ft 408 kts 248°
2026-05-04 06:51 28.09763 108.36617 34203 ft 408 kts 248°
2026-05-04 06:51 28.07180 108.30898 34213 ft 408 kts 247°
2026-05-04 06:52 28.04603 108.25199 34207 ft 407 kts 248°
2026-05-04 06:52 28.02028 108.19513 34210 ft 407 kts 248°
2026-05-04 06:53 27.99453 108.13833 34206 ft 407 kts 248°
2026-05-04 06:53 27.96867 108.08141 34196 ft 407 kts 248°
2026-05-04 06:54 27.94290 108.02473 34185 ft 408 kts 248°
2026-05-04 06:54 27.91690 107.96764 34188 ft 408 kts 248°
2026-05-04 06:55 27.89100 107.91082 34191 ft 409 kts 248°
2026-05-04 06:55 27.86492 107.85371 34200 ft 410 kts 247°
2026-05-04 06:57 27.76532 107.63254 34227 ft 412 kts 248°
2026-05-04 06:58 27.73941 107.57455 34210 ft 411 kts 248°
2026-05-04 06:58 27.71372 107.51713 34205 ft 413 kts 248°
2026-05-04 06:59 27.68781 107.45932 34207 ft 413 kts 248°
2026-05-04 06:59 27.66178 107.40131 34210 ft 414 kts 248°
2026-05-04 07:01 27.55730 107.16935 34211 ft 417 kts 248°
2026-05-04 07:02 27.53104 107.11115 34220 ft 418 kts 248°
2026-05-04 07:02 27.50452 107.05248 34228 ft 419 kts 248°
2026-05-04 07:03 27.47829 106.99455 34227 ft 419 kts 248°
2026-05-04 07:03 27.45210 106.93613 34219 ft 419 kts 248°
2026-05-04 07:04 27.42586 106.87730 34219 ft 420 kts 248°
2026-05-04 07:04 27.39963 106.81864 34220 ft 421 kts 249°
2026-05-04 07:05 27.37328 106.75985 34229 ft 423 kts 249°
2026-05-04 07:05 27.34671 106.70086 34224 ft 422 kts 248°
2026-05-04 07:06 27.30686 106.61270 34230 ft 422 kts 248°
2026-05-04 07:07 27.28022 106.55386 34235 ft 423 kts 248°
2026-05-04 07:09 27.17306 106.31789 34261 ft 426 kts 248°
2026-05-04 07:09 27.14609 106.25866 34259 ft 427 kts 248°
2026-05-04 07:10 27.11902 106.19925 34259 ft 428 kts 248°
2026-05-04 07:12 27.02802 105.95547 34270 ft 422 kts 260°
2026-05-04 07:12 27.01545 105.89098 34269 ft 421 kts 261°
2026-05-04 07:13 27.00321 105.82715 34270 ft 422 kts 261°
2026-05-04 07:13 26.99092 105.76300 34286 ft 422 kts 261°
2026-05-04 07:14 26.96020 105.60272 34290 ft 422 kts 261°
2026-05-04 07:15 26.94781 105.53830 34295 ft 422 kts 261°
2026-05-04 07:15 26.93544 105.47421 34295 ft 423 kts 261°
2026-05-04 07:16 26.92300 105.40985 34301 ft 423 kts 261°